Tracking 26442 objects as of 6-Dec-2022
HD Live streaming from Space Station
objects crossing your sky now

TJS-3

Track TJS-3 now!
TJS-3 is classified as:


NORAD ID: 43874
Int'l Code: 2018-110A
Perigee: 35,739.6 km
Apogee: 35,752.6 km
Inclination: 0.1 °
Period: 1,433.7 minutes
Semi major axis: 42117 km
RCS: Unknown
Launch date: December 24, 2018
Source: People's Republic of China (PRC)
Launch site: Xichang Space Center, China (XSC)
aabbcc
Your satellite tracking list
Your tracking list is empty




NASA's NSSDC Master Catalog

Two Line Element Set (TLE):
1 43874U 18110A   22339.83065892 -.00000312  00000-0  00000-0 0  9994
2 43874   0.0987  79.0155 0001538 188.1951 205.9705  1.00442022 14490
Source of the keplerian elements: AFSPC